Probability
12 15 18 18 16 14 13 12 8 6 4 3 3 1 0 0 0 0 0 0 0 0 0 0 0 0 0 0 0 0 0 0 0 0 0 0 0 0 0 0 0 0 0
11 14 18 19 17 15 14 12 8 5 4 3 3 2 1 0 0 0 0 0 0 0 0 0 0 0 0 0 0 0 0 0 0 0 0 0 0 0 0 0 0 0 0
11 12 16 18 17 15 14 12 8 5 3 3 3 2 1 0 0 0 0 0 0 0 0 0 0 0 0 0 0 0 0 0 0 0 0 0 0 0 0 0 0 0 0
11 10 12 15 16 13 12 12 8 5 3 3 3 2 1 0 0 0 0 0 0 0 0 0 0 0 0 0 0 0 0 0 0 0 0 0 0 0 0 0 0 0 0
12 9 9 13 13 10 10 11 9 6 4 3 2 1 1 0 0 0 0 0 0 0 0 0 0 0 0 0 0 0 0 0 0 0 0 0 0 0 0 0 0 0 0
12 10 10 11 11 9 9 10 9 7 4 3 2 2 2 1 1 0 0 0 0 0 0 0 0 0 0 0 0 0 0 0 0 0 0 0 0 0 0 0 0 0 0
12 11 10 10 8 7 8 8 8 7 5 3 3 3 3 3 2 1 0 0 0 0 0 0 0 0 0 0 0 0 0 0 0 0 0 0 0 0 0 0 0 0 0
12 11 9 8 7 6 6 6 6 6 5 4 3 3 3 3 3 2 1 0 1 1 1 1 0 0 0 0 0 0 0 0 0 0 0 0 0 0 0 0 0 0 0
12 10 9 8 6 5 5 5 5 5 5 4 3 3 3 3 3 3 2 1 1 2 2 1 0 0 0 0 0 0 0 0 0 0 0 0 0 0 0 0 0 0 0
12 11 9 8 7 6 5 4 4 5 5 4 3 3 3 3 3 3 2 1 1 1 2 1 1 0 0 0 0 0 0 0 0 0 0 0 0 0 0 0 0 0 0
10 10 9 9 8 7 5 4 4 5 6 5 4 2 2 3 3 3 1 1 1 1 0 1 1 0 0 0 0 0 0 0 0 0 0 0 0 0 0 0 0 0 0
8 8 9 9 9 8 7 6 6 6 6 6 5 4 3 3 4 3 2 1 0 0 0 0 0 0 0 0 0 0 0 0 0 0 0 0 0 0 0 0 0 0 0
7 7 7 9 9 9 9 9 8 8 7 7 6 6 5 5 5 4 3 2 1 0 0 0 0 0 0 0 0 0 0 0 0 0 0 0 0 0 0 0 0 0 0
7 6 6 7 9 9 10 9 8 7 7 7 6 6 6 6 6 6 5 4 4 2 1 1 0 0 0 0 0 0 0 0 0 0 0 0 0 0 0 0 0 0 0
5 5 5 6 8 9 10 9 7 6 6 6 6 6 6 6 6 6 6 6 6 5 3 2 1 0 0 0 0 0 0 0 0 0 0 0 0 0 0 0 0 0 0
2 3 4 5 7 8 9 9 8 6 5 4 5 6 6 6 6 6 6 6 6 6 5 3 1 0 0 0 0 0 0 0 0 0 0 0 0 0 0 0 0 0 0
0 1 2 3 4 7 8 9 8 6 4 3 4 6 6 6 6 6 6 6 6 5 4 2 1 0 0 0 0 0 0 0 0 0 0 0 0 0 0 0 0 0 0
0 0 0 1 2 3 6 8 7 5 4 3 4 5 6 6 6 6 6 6 6 5 4 2 1 0 0 0 0 0 0 0 0 0 0 0 0 0 0 0 0 0 0
0 0 0 0 0 1 2 4 5 4 3 3 3 4 5 6 6 6 6 5 4 4 3 1 1 1 1 0 0 0 0 0 0 0 0 0 0 0 0 0 0 0 0
0 0 0 0 0 0 0 1 2 3 3 3 2 3 4 6 6 6 5 4 3 3 3 1 1 1 1 0 0 0 0 0 0 0 0 0 0 0 0 0 0 0 0
0 0 0 0 0 0 0 0 1 2 2 1 1 1 2 5 6 5 4 3 3 3 3 2 1 1 1 0 0 0 0 0 0 0 0 0 0 0 0 0 0 0 0
0 0 0 0 0 0 0 0 1 1 1 0 0 0 1 3 4 4 3 3 3 3 3 2 1 0 0 0 0 0 0 0 0 0 0 0 0 0 0 0 0 0 0
0 0 0 0 0 0 0 0 0 0 0 0 0 0 1 2 3 3 3 3 3 3 3 2 1 0 0 0 0 0 0 0 0 0 0 0 0 0 0 0 0 0 0
0 0 0 0 0 0 0 0 0 0 0 0 0 0 1 2 3 3 3 3 3 3 3 2 1 0 0 0 0 0 0 0 0 0 0 0 0 0 0 0 0 0 0
0 0 0 0 0 0 0 0 0 0 0 0 0 0 0 1 2 3 3 3 3 3 3 2 1 0 0 0 0 0 0 0 0 0 0 0 0 0 0 0 0 0 0
0 0 0 0 0 0 0 0 0 0 0 0 0 0 0 0 1 3 3 3 3 3 3 2 1 0 0 0 0 0 0 0 0 0 0 0 0 0 0 0 0 0 0
Wind_Speed
5 7 7 6 8 8 8 7 8 8 8 8 9 9 9 9 10 10 10 10 10 10 10 11 11 11 12 12 12 12 12 11 12 12 11 12 12 12 12 12 11 8 13
6 8 7 6 8 8 8 8 8 8 8 8 8 8 9 9 9 9 9 9 9 9 10 10 11 11 11 11 11 11 11 10 10 10 10 9 10 11 12 12 11 8 12
7 8 7 7 8 8 8 8 8 7 7 8 8 8 8 8 8 9 9 8 9 9 9 10 10 10 10 10 10 10 9 8 7 7 7 5 7 11 11 11 11 11 11
7 7 6 7 8 8 8 8 7 7 7 7 7 7 7 8 8 8 8 8 8 9 9 10 10 9 9 9 9 9 8 7 6 6 4 5 5 9 11 11 11 11 11
7 6 6 8 8 8 8 8 7 6 6 7 7 7 7 7 7 7 7 7 8 8 9 9 9 8 8 8 8 7 6 6 5 4 4 5 5 9 10 10 10 11 10
6 6 6 7 8 7 7 7 6 6 6 6 6 6 7 7 7 7 7 7 8 8 8 8 8 8 8 7 7 6 5 5 4 3 4 5 4 8 9 9 9 10 9
5 5 6 7 7 7 7 7 6 6 5 6 6 6 6 6 7 7 7 7 8 8 8 8 8 7 7 6 6 5 5 5 2 3 4 4 5 8 8 8 8 8 8
5 5 6 6 6 6 6 6 6 5 5 5 5 5 6 6 7 7 6 7 7 7 8 8 7 7 6 6 5 4 4 4 3 4 4 4 6 7 7 8 8 8 8
5 5 4 4 4 5 5 6 5 5 4 4 5 5 5 6 6 6 6 6 7 7 7 7 7 6 6 6 5 4 5 5 3 2 4 3 6 7 7 6 7 6 7
5 4 4 3 3 3 3 4 4 4 4 4 5 5 5 5 6 6 5 6 6 6 6 6 6 6 6 5 4 4 4 4 3 3 3 3 5 6 5 5 6 6 6
4 4 3 3 2 2 2 3 3 3 4 4 4 5 4 3 3 3 4 6 6 6 6 6 6 5 4 3 2 2 3 1 2 3 2 4 5 4 4 4 4 5 5
3 3 3 2 2 2 1 2 2 2 2 2 2 3 2 2 2 4 5 5 5 5 5 5 5 4 2 1 1 1 1 1 2 2 3 5 4 4 4 4 3 4 4
3 3 2 2 2 2 1 2 1 1 1 2 2 2 1 2 3 3 2 3 3 3 2 3 2 1 1 1 1 0 1 1 1 2 3 5 4 4 4 4 4 3 3
2 2 2 2 2 2 1 1 1 1 1 1 2 2 2 2 2 2 2 1 1 1 1 1 1 1 1 1 1 1 1 1 1 1 2 5 4 3 3 3 3 3 3
2 2 2 2 2 1 1 1 1 1 1 1 1 2 2 2 2 1 1 1 1 1 1 1 1 1 1 0 0 1 1 1 1 1 2 4 3 2 2 2 2 2 2
1 1 1 2 2 1 1 1 1 1 1 1 1 2 2 1 1 1 2 1 1 1 1 1 1 1 1 1 1 1 0 0 1 1 2 2 3 2 1 1 1 1 2
1 1 1 2 2 2 1 1 1 1 1 1 1 2 2 2 1 1 1 1 1 1 1 1 1 1 1 0 1 0 0 1 1 1 1 1 1 1 1 0 1 1 1
1 1 1 2 2 1 1 1 1 1 1 1 1 1 1 2 1 2 1 1 1 1 1 1 1 1 1 0 0 1 0 0 0 0 1 1 1 1 0 1 1 1 1
2 2 1 1 2 1 1 1 1 1 2 1 1 1 1 1 1 2 1 1 1 1 1 1 1 1 1 0 0 1 1 0 1 0 0 0 1 1 1 0 1 1 1
2 2 1 1 1 1 1 1 1 1 1 1 1 1 1 1 2 2 1 1 2 1 1 0 0 0 1 1 0 1 1 1 0 1 1 1 0 1 1 1 1 1 1
2 2 1 1 1 1 1 1 2 1 1 1 1 1 1 1 2 2 2 2 2 1 1 1 0 0 0 1 1 1 2 1 1 1 1 1 1 1 1 1 1 1 0
1 2 1 1 1 0 0 1 1 1 1 1 1 0 1 1 2 2 2 2 2 1 2 1 1 0 0 1 1 0 1 2 2 2 1 1 1 1 1 1 1 1 1
2 1 1 0 1 0 1 0 1 1 1 1 1 1 1 1 2 2 3 3 2 2 2 2 2 2 1 1 0 1 1 2 1 1 2 1 1 1 2 1 2 2 1
2 2 1 0 0 0 0 1 1 1 1 2 2 2 1 1 2 2 2 3 3 2 2 2 2 1 2 1 1 1 0 1 1 1 1 1 1 2 2 1 1 2 1
2 1 1 1 1 0 1 1 2 2 1 1 1 1 1 1 2 2 2 2 3 2 2 2 2 2 1 2 1 1 1 1 0 1 2 2 2 2 2 2 1 1 2
2 2 1 1 1 1 0 1 1 2 1 1 1 2 2 1 2 2 2 2 3 2 3 3 3 3 2 2 1 1 1 1 1 1 2 2 2 2 2 1 1 2 1
Wind_Direction
99 121 124 118 116 116 113 107 106 107 104 103 100 95 92 88 85 86 86 86 85 84 82 80 78 75 72 71 70 69 69 71 71 70 71 72 72 70 67 65 67 68 71
114 123 123 114 117 115 111 107 106 106 105 105 103 99 96 94 91 89 88 86 86 86 85 83 81 78 75 73 72 70 68 69 69 69 71 72 72 70 66 64 69 72 74
109 120 129 115 115 114 110 108 105 106 106 107 104 102 100 98 96 93 91 89 90 90 89 86 83 81 80 77 74 71 67 65 64 67 73 76 74 71 70 70 71 72 74
104 117 132 116 114 113 111 107 105 105 108 107 105 103 103 102 100 97 92 91 93 93 91 89 85 82 81 79 75 71 65 56 48 56 71 75 71 74 73 74 72 70 70
97 112 121 115 114 111 110 105 104 104 105 105 104 102 101 101 99 97 94 92 96 94 92 91 89 86 83 81 76 69 58 43 41 50 73 79 73 77 75 75 74 72 69
96 103 108 109 113 110 110 110 106 106 106 106 107 104 101 100 99 94 94 92 92 93 93 91 89 91 87 82 76 66 50 35 31 51 69 78 77 80 78 77 77 75 72
92 99 114 97 104 108 109 111 110 109 110 109 105 105 102 99 98 96 94 92 92 90 93 94 91 89 87 84 76 61 41 29 32 61 67 76 83 87 82 80 81 79 75
91 98 114 97 96 103 114 113 108 107 106 110 106 102 102 101 102 101 97 92 93 92 91 92 92 88 85 81 74 51 20 8 38 68 75 83 86 90 88 85 83 82 78
91 95 105 109 110 102 106 111 109 107 103 109 111 106 99 95 96 97 96 95 93 92 90 91 90 88 83 74 64 41 18 16 31 50 74 82 95 95 94 94 87 84 79
91 92 99 102 102 116 123 115 118 113 106 109 107 99 96 96 95 94 96 95 96 97 95 95 94 91 88 81 64 35 15 15 44 51 56 82 95 96 95 102 96 88 83
86 94 102 106 103 109 129 122 127 128 118 114 114 109 106 108 110 107 96 95 97 101 103 101 98 95 92 91 77 36 12 31 46 53 55 86 93 96 95 101 104 98 91
97 98 101 105 108 105 120 124 131 141 138 128 116 121 125 114 100 98 102 98 95 99 105 109 106 103 94 96 87 24 19 36 54 61 64 90 94 94 90 89 108 112 108
123 100 97 105 107 98 96 109 104 120 137 141 126 113 111 102 100 97 101 103 101 102 105 117 116 89 86 91 93 57 26 39 62 70 73 83 82 94 96 91 87 92 96
125 122 113 111 114 114 104 115 111 94 105 117 126 110 99 100 103 112 113 122 115 111 114 112 113 97 78 74 106 70 41 53 73 86 82 80 72 92 99 96 94 90 80
95 121 126 122 117 118 120 118 112 115 105 111 107 103 97 112 122 128 130 123 118 114 125 131 126 125 102 57 67 76 40 46 72 89 93 84 72 74 102 93 97 103 98
130 123 119 121 117 125 124 121 121 115 114 111 103 103 108 108 119 124 116 114 111 130 137 141 149 129 101 42 22 37 31 35 71 90 103 103 77 55 74 114 116 113 110
150 129 130 139 131 136 138 139 121 116 113 103 100 119 111 106 111 116 122 125 133 137 129 123 115 106 101 55 352 343 9 27 47 88 99 116 126 56 20 325 211 184 155
132 132 126 113 125 145 150 143 122 124 112 101 93 114 124 121 118 114 111 108 96 102 121 123 125 119 110 111 337 328 309 42 40 22 73 97 123 129 336 333 321 249 223
140 133 133 122 131 146 157 145 123 124 112 96 90 91 119 130 131 119 116 105 108 104 110 130 149 143 132 149 271 298 286 246 206 180 209 121 110 121 143 221 349 338 275
119 116 120 122 118 133 157 158 143 123 117 113 108 103 117 141 137 124 116 107 102 107 104 125 157 103 143 175 287 307 288 244 213 209 222 192 173 211 181 164 166 299 302
95 117 128 119 114 120 162 176 173 173 155 143 134 124 125 132 147 139 128 133 126 137 152 148 168 134 47 73 46 320 299 261 218 233 227 209 210 220 201 179 161 168 248
81 81 98 104 116 110 146 195 192 176 178 169 154 137 142 162 163 155 152 157 158 154 149 144 114 100 72 117 125 283 302 308 276 243 240 240 224 212 212 212 175 176 178
76 69 61 41 144 129 31 78 83 99 107 177 206 202 198 190 178 172 172 166 171 166 176 177 169 163 195 219 145 146 172 236 288 261 233 242 232 226 226 222 203 200 191
79 53 20 25 69 158 145 164 177 203 217 224 212 214 209 196 189 178 180 178 178 177 178 186 183 199 162 207 260 263 200 170 174 287 284 260 260 240 230 237 223 219 209
84 80 43 22 8 10 181 194 200 216 233 230 207 206 208 212 201 182 178 183 186 186 181 183 185 202 189 184 201 234 262 301 230 206 267 284 280 255 238 226 219 232 224
56 46 38 32 341 357 281 214 206 219 231 222 224 219 218 223 216 191 182 193 194 192 190 194 197 201 205 199 196 182 184 201 217 214 243 268 270 266 258 239 228 234 232